sat.trackr.live / text

‹ back to catalog

STARLINK-6267

NORAD 56400 · 2023-061AC

PAYLOAD ACTIVE UNKNOWN

§ Identity

Operator
Country
US
Launch date
2023-05-04
Launch site
AFETR
Launch vehicle
Mass (kg)
RCS (m²)

Purposes: comms

External: N2YO · Heavens-Above · Gunter

§ Orbital elements

Epoch: 2026-09-19T22:34:10.115040Z

Period
94.27 min
Inclination
43.0032°
Eccentricity
0.0001616
Mean motion
15.27574569 rev/d
Perigee alt
482.0 km
Apogee alt
484.2 km
Semi-major
6,861.2 km
B*
-8.2898e-6
RAAN
169.9411°
Arg perigee
267.6209°
Mean anomaly
92.4458°
Rev number
18,658

§ Raw data

STARLINK-62671 56400U 23061AC  26262.94039485 -.00000490  00000+0 -82898-5 0  99912 56400  43.0032 169.9411 0001616 267.6209  92.4458 15.27574569186587

JSON: /api/v1/satellites/56400 · /tle

For live sub-satellite position, see the globe view (requires WebGL).

§ Visibility from observer

Set your observer location to see the next 7 days of passes ≥ 10°. The values pass through the URL so the page stays shareable.

No JS? Fill the form by hand. The geolocation button needs JavaScript.